Millbury, OH

4:14 PM EST on February 20, 2017 (GMT -0500)
Metcalf

Weather History for KTDZ - April, 2014

Change the Weather History Date:

Friday, April 4, 2014

  Actual Average (KTOL) Record (KTOL)
Temperature  
Mean Temperature 46 °F -  
Max Temperature 57 °F 52 °F 78 °F (1882)
Min Temperature 35 °F 32 °F 14 °F (1971)
Degree Days  
Heating Degree Days 19    
Moisture  
Dew Point 38 °F    
Average Humidity 89    
Maximum Humidity 100    
Minimum Humidity 70    
Precipitation  
Precipitation 0.11 in - - ()
Sea Level Pressure  
Sea Level Pressure 29.63 in    
Wind  
Wind Speed 11 mph (ESE)    
Max Wind Speed 38 mph    
Max Gust Speed 47 mph    
Visibility 4 miles    
Events Fog , Rain    
Averages and records for this station are not official NWS values.
T = Trace of Precipitation, MM = Missing Value Source: NWS Daily Summary

Daily Weather History Graph

Daily Weather History Graph

Search for Another Location

Airport or City:

Trip Planner

Search our weather history database for the weather conditions in past years. The results will help you decide how hot, cold, wet, or windy it might be!

Date:

Astronomy

Apr. 04, 2014 Rise Set
Actual Time 7:11 AM EDT 8:02 PM EDT
Civil Twilight 6:43 AM EDT 8:30 PM EDT
Nautical Twilight 6:10 AM EDT 9:04 PM EDT
Astronomical Twilight 5:35 AM EDT 9:38 PM EDT
Moon 10:25 AM EDT (4/4) 12:22 AM EDT (4/4)
Length of Visible Light 13h 46m
Length of Day
12h 50m
Waxing Crescent, 25% of the Moon is Illuminated
Apr 4
Waxing Crescent
Apr 7
First Quarter
Apr 15
Full
Apr 22
Last Quarter
Apr 29
New

Hourly Weather History & Observations

Time (EDT) Temp. Windchill Dew Point Humidity Pressure Visibility Wind Dir Wind Speed Gust Speed Precip Events Conditions
12:26 AM 35.1 °F 26.4 °F 33.1 °F 92% 29.77 in 2.5 mi ENE 12.7 mph 20.7 mph N/A   Overcast
12:53 AM 35.1 °F 27.9 °F 33.1 °F 92% 29.79 in 2.5 mi ENE 9.2 mph - N/A   Overcast
1:19 AM 35.1 °F 25.9 °F 34.0 °F 96% 29.79 in 1.8 mi ENE 13.8 mph 18.4 mph N/A   Overcast
1:39 AM 35.1 °F 27.4 °F 33.1 °F 92% 29.76 in 2.0 mi ENE 10.4 mph 20.7 mph N/A   Overcast
1:53 AM 35.1 °F 25.9 °F 33.1 °F 92% 29.76 in 2.5 mi ENE 13.8 mph - N/A   Overcast
2:25 AM 35.1 °F 28.6 °F 33.1 °F 92% 29.76 in 3.0 mi ENE 8.1 mph - N/A   Overcast
2:50 AM 35.6 °F 30.7 °F 33.8 °F 93% 29.77 in 2.5 mi East 5.8 mph - N/A   Overcast
2:53 AM 35.1 °F 28.6 °F 34.0 °F 96% 29.78 in 2.0 mi ENE 8.1 mph - N/A   Overcast
3:03 AM 35.1 °F 30.1 °F 34.0 °F 96% 29.77 in 1.5 mi ENE 5.8 mph - N/A   Overcast
3:12 AM 35.1 °F 30.1 °F 34.0 °F 96% 29.76 in 1.0 mi ENE 5.8 mph - N/A   Overcast
3:30 AM 35.1 °F 31.0 °F 34.0 °F 96% 29.75 in 0.8 mi NE 4.6 mph - N/A   Overcast
3:51 AM 35.6 °F 31.7 °F 33.8 °F 93% 29.74 in 0.5 mi ENE 4.6 mph - N/A Fog Fog
3:53 AM 35.1 °F 29.3 °F 34.0 °F 96% 29.75 in 0.5 mi ENE 6.9 mph - N/A Fog Fog
4:09 AM 35.1 °F 30.1 °F 34.0 °F 96% 29.73 in 0.5 mi ENE 5.8 mph - N/A Fog Fog
4:53 AM 35.1 °F 32.2 °F 34.0 °F 96% 29.73 in 0.5 mi NNE 3.5 mph - N/A Fog Fog
5:53 AM 35.1 °F 30.1 °F 33.1 °F 92% 29.68 in 0.2 mi East 5.8 mph - N/A Fog Fog
6:51 AM 35.6 °F 29.9 °F 35.6 °F 100% 29.60 in 0.8 mi East 6.9 mph - 0.00 in Rain Light Rain
6:53 AM 36.0 °F 31.1 °F 35.1 °F 97% 29.62 in 1.0 mi East 5.8 mph - 0.01 in Rain Light Rain
7:04 AM 36.0 °F 29.6 °F 35.1 °F 97% 29.60 in 1.5 mi East 8.1 mph - 0.00 in   Overcast
7:13 AM 36.0 °F 31.1 °F 35.1 °F 97% 29.59 in 2.5 mi ENE 5.8 mph - 0.00 in   Overcast
7:20 AM 36.0 °F 31.1 °F 35.1 °F 97% 29.58 in 2.5 mi NE 5.8 mph - 0.00 in   Overcast
7:31 AM 37.0 °F - 36.0 °F 96% 29.59 in 3.0 mi Calm Calm - 0.00 in   Overcast
7:48 AM 37.4 °F 34.9 °F 35.6 °F 93% 29.60 in 3.0 mi East 3.5 mph - 0.00 in   Overcast
7:53 AM 37.0 °F 33.3 °F 35.1 °F 93% 29.62 in 3.0 mi East 4.6 mph - 0.00 in   Overcast
8:01 AM 37.0 °F 34.5 °F 35.1 °F 93% 29.60 in 2.0 mi East 3.5 mph - N/A   Overcast
8:08 AM 37.0 °F 34.5 °F 35.1 °F 93% 29.59 in 1.8 mi East 3.5 mph - N/A   Overcast
8:53 AM 37.9 °F 34.4 °F 37.0 °F 97% 29.58 in 1.5 mi NE 4.6 mph - N/A   Overcast
9:02 AM 37.9 °F 33.5 °F 37.0 °F 97% 29.55 in 0.8 mi ENE 5.8 mph - N/A   Overcast
9:25 AM 39.0 °F 34.0 °F 37.0 °F 93% 29.54 in 0.2 mi East 6.9 mph - N/A Fog Fog
9:32 AM 39.9 °F 34.5 °F 37.9 °F 93% 29.54 in 0.2 mi ESE 8.1 mph - N/A Fog Fog
9:53 AM 39.9 °F 37.8 °F 39.0 °F 97% 29.53 in 0.2 mi East 3.5 mph - 0.00 in Fog , Rain Light Rain
10:39 AM 44.1 °F 39.5 °F 43.0 °F 96% 29.48 in 1.2 mi ESE 8.1 mph - 0.04 in   Overcast
10:53 AM 45.0 °F 40.1 °F 44.1 °F 97% 29.49 in 1.5 mi SE 9.2 mph - 0.04 in   Overcast
11:34 AM 50.0 °F - 48.9 °F 96% 29.49 in 2.5 mi South 9.2 mph - N/A   Overcast
11:41 AM 52.0 °F - 50.0 °F 93% 29.48 in 3.0 mi South 11.5 mph - N/A   Overcast
11:48 AM 51.8 °F - 51.8 °F 100% 29.49 in 5.0 mi South 12.7 mph - N/A   Overcast
11:53 AM 53.1 °F - 52.0 °F 96% 29.49 in 6.0 mi South 15.0 mph - N/A   Overcast
12:53 PM 57.0 °F - 53.1 °F 87% 29.47 in 10.0 mi SW 16.1 mph 23.0 mph N/A   Overcast
1:12 PM 57.0 °F - 53.1 °F 87% 29.45 in 2.5 mi SW 15.0 mph - 0.02 in Rain Light Rain
1:19 PM 57.0 °F - 54.0 °F 89% 29.45 in 7.0 mi SW 15.0 mph - 0.02 in   Overcast
1:48 PM 55.4 °F - 51.8 °F 88% 29.46 in 3.0 mi WSW 21.9 mph 33.4 mph 0.03 in Rain Light Rain
1:53 PM 55.0 °F - 51.1 °F 86% 29.48 in 4.0 mi West 24.2 mph 33.4 mph 0.03 in Rain Light Rain
2:27 PM 52.0 °F - 46.9 °F 83% 29.49 in 9.0 mi West 23.0 mph 28.8 mph 0.02 in   Overcast
2:36 PM 51.1 °F - 46.9 °F 86% 29.50 in 6.0 mi West 23.0 mph 29.9 mph 0.02 in Rain Light Rain
2:53 PM 50.0 °F - 46.9 °F 89% 29.52 in 4.0 mi West 17.3 mph 25.3 mph 0.02 in Rain Light Rain
3:36 PM 50.0 °F - 43.0 °F 77% 29.53 in 10.0 mi WSW 27.6 mph 39.1 mph 0.00 in   Overcast
3:53 PM 48.0 °F - 41.0 °F 77% 29.55 in 10.0 mi WSW 26.5 mph 42.6 mph 0.00 in   Overcast
4:53 PM 46.0 °F 37.4 °F 37.9 °F 73% 29.58 in 10.0 mi WSW 25.3 mph 38.0 mph N/A   Mostly Cloudy
5:53 PM 43.0 °F 31.4 °F 34.0 °F 71% 29.63 in 10.0 mi WSW 38.0 mph 47.2 mph N/A   Overcast
6:53 PM 42.1 °F 32.1 °F 35.1 °F 76% 29.67 in 10.0 mi WSW 25.3 mph 33.4 mph 0.00 in Rain Light Rain
7:53 PM 39.9 °F 28.4 °F 32.0 °F 73% 29.72 in 10.0 mi WSW 29.9 mph 39.1 mph 0.00 in   Overcast
8:29 PM 37.9 °F 27.3 °F 32.0 °F 79% 29.73 in 9.0 mi WSW 21.9 mph 33.4 mph 0.01 in Rain Light Rain
8:53 PM 37.9 °F 27.9 °F 32.0 °F 79% 29.75 in 10.0 mi WSW 19.6 mph 33.4 mph 0.01 in Rain Light Rain
9:32 PM 39.0 °F 28.3 °F 30.9 °F 73% 29.76 in 10.0 mi WSW 24.2 mph 32.2 mph 0.00 in   Overcast
9:53 PM 39.0 °F 28.3 °F 30.0 °F 70% 29.78 in 10.0 mi West 24.2 mph 34.5 mph 0.00 in   Overcast
10:17 PM 39.0 °F 29.3 °F 30.9 °F 73% 29.78 in 10.0 mi WSW 19.6 mph 33.4 mph N/A   Overcast
10:53 PM 37.9 °F 27.9 °F 30.0 °F 73% 29.80 in 10.0 mi WSW 19.6 mph 31.1 mph 0.00 in   Overcast
11:53 PM 37.9 °F 27.3 °F 28.9 °F 70% 29.82 in 10.0 mi West 21.9 mph 29.9 mph N/A   Overcast